[[{"header":{"parameterUnit":"m.s-1","parameterCategory":1,"la1":30.2991,"la2":30.254,"lo1":-89.0895,"lo2":-89.0444,"dy":0.0017,"dx":0.0017,"nx":28,"ny":28,"refTime":"2024-02-17T03:00:00:Z","depth":0,"parameterNumber":2,"parameterNumberName":"U-component_of_WINDS"},"data":[0,0,0,0,0,0,0,0,0,0,0,0,0,0,0,0,0,0,0,0,0,0,0,0,0,0,0,0,0,0,0,0,0,0,0,0,0,0,0,0,0,0,0,0,0,0,0,0,0,0,0,0,0,0,0,0,0,0,-0.5783,-0.5783,0,-0.577,-0.577,-0.577,-0.5749,-0.5749,-0.5748,-0.5748,-0.5736,-0.5736,-0.5736,0,0,0,0,0,0,0,0,0,0,0,0,0,-0.5787,-0.5787,-0.5783,-0.5783,-0.5782,-0.577,-0.577,-0.577,-0.5749,-0.5749,-0.5748,-0.5748,-0.5736,-0.5736,-0.5736,0,0,0,0,0,0,0,0,0,0,0,0,0,-0.5781,-0.5787,-0.5783,-0.5771,-0.5769,-0.5771,-0.577,-0.577,-0.5749,-0.5749,-0.5748,-0.5748,-0.5736,-0.5736,-0.5736,-0.5748,0,0,-0.5736,-0.5736,0,0,0,0,0,0,0,0,-0.5782,-0.5781,-0.5772,-0.5771,-0.577,-0.5761,-0.5767,-0.5763,-0.575,-0.5757,-0.5748,-0.5747,-0.5745,-0.5744,-0.5743,-0.5747,-0.5747,-0.5736,-0.5736,-0.5736,-0.5736,0,0,0,0,0,0,0,-0.5782,-0.5781,-0.5778,-0.5772,-0.5771,-0.5765,-0.5764,-0.5766,-0.5754,-0.5756,-0.5755,-0.5754,-0.5744,-0.5743,-0.5742,-0.5747,-0.5736,-0.5736,-0.5736,-0.5736,-0.5759,-0.5759,0,0,0,0,0,0,-0.5784,-0.5782,-0.5778,-0.5777,-0.5774,-0.5766,-0.5764,-0.5764,-0.5754,-0.5752,-0.5754,-0.5753,-0.5743,-0.5742,-0.5742,-0.5754,-0.5736,-0.5736,-0.5736,-0.5758,-0.5759,-0.576,0,0,0,0,0,0,-0.5784,-0.5784,-0.5779,-0.5779,-0.5778,-0.5766,-0.5767,-0.5764,-0.5763,-0.5752,-0.575,-0.5755,-0.5743,-0.5742,-0.5746,-0.5753,-0.5736,-0.5736,-0.5758,-0.5758,-0.5759,-0.5779,0,0,0,0,0,0,-0.5785,-0.5784,-0.5789,-0.578,-0.5778,-0.5784,-0.5767,-0.5765,-0.5764,-0.5762,-0.5753,-0.5751,-0.5742,-0.5746,-0.5746,-0.5753,-0.5736,-0.5757,-0.5758,-0.5759,-0.5778,-0.5781,-0.5783,0,0,0,0,0,-0.5785,-0.5796,-0.5789,-0.5789,-0.5784,-0.5784,-0.5783,-0.5772,-0.5764,-0.5769,-0.5761,-0.5751,-0.5753,-0.5747,-0.5747,-0.5754,-0.5756,-0.5758,-0.5759,-0.5777,-0.578,-0.5783,0,0,0,0,0,0,-0.5807,-0.5794,-0.5787,-0.5795,-0.5791,-0.578,-0.5786,-0.5777,-0.5775,-0.5773,-0.576,-0.5758,-0.5764,-0.5759,-0.5753,-0.5764,-0.5753,-0.5754,-0.5767,-0.577,-0.5772,-0.5773,-0.5736,0,0,0,0,0,-0.5812,-0.5814,-0.5803,-0.5811,-0.5809,-0.5798,-0.5797,-0.5789,-0.5784,-0.5782,-0.5775,-0.5771,-0.577,-0.577,-0.5769,-0.5778,-0.5775,-0.5782,-0.5785,-0.5787,-0.5788,-0.5791,-0.5794,-0.5764,-0.5764,-0.5764,0,0,-0.5824,-0.5817,-0.5819,-0.5815,-0.581,-0.5811,-0.5796,-0.5798,-0.5799,-0.5783,-0.5786,-0.5781,-0.5775,-0.5781,-0.5783,-0.5778,-0.5796,-0.5789,-0.5791,-0.579,-0.5793,-0.5795,-0.5798,-0.5765,-0.5765,-0.5764,0,0,-0.5846,-0.5841,-0.5847,-0.5843,-0.5836,-0.5828,-0.583,-0.5821,-0.5816,-0.5819,-0.5807,-0.5807,-0.5807,-0.5802,-0.58,-0.5819,-0.581,-0.5819,-0.5833,-0.5836,-0.5838,-0.584,-0.5845,-0.5848,-0.5821,-0.5821,-0.5821,0,-0.5861,-0.5862,-0.5851,-0.5853,-0.5851,-0.5836,-0.5841,-0.5838,-0.5831,-0.583,-0.5824,-0.5822,-0.5817,-0.5821,-0.5825,-0.5825,-0.5825,-0.582,-0.5839,-0.5841,-0.5842,-0.5847,-0.5849,-0.5822,-0.5822,-0.5822,-0.5821,0,-0.5881,-0.5882,-0.5887,-0.588,-0.5879,-0.5883,-0.5871,-0.5872,-0.5864,-0.5857,-0.5859,-0.5853,-0.5849,-0.585,-0.5843,-0.5853,-0.5849,-0.5841,-0.5829,-0.5846,-0.5851,-0.5853,-0.5823,-0.5823,-0.5823,-0.5822,0,0,-0.5915,-0.5902,-0.5904,-0.59,-0.5891,-0.5892,-0.5895,-0.5891,-0.5891,-0.5887,-0.5888,-0.5887,-0.5879,-0.5877,-0.5869,-0.5871,-0.5885,-0.5863,-0.5862,-0.5866,-0.5895,-0.59,-0.5902,-0.5879,-0.5879,-0.588,-0.5895,0,-0.5934,-0.5938,-0.5927,-0.5933,-0.5933,-0.5919,-0.5921,-0.5916,-0.591,-0.5908,-0.5901,-0.59,-0.589,-0.5889,-0.5891,-0.5883,-0.5891,-0.5882,-0.5879,-0.5879,-0.588,-0.5905,-0.5911,-0.5925,-0.5896,-0.5897,-0.5897,0,-0.5956,-0.5953,-0.5959,-0.5949,-0.5948,-0.595,-0.5945,-0.5945,-0.5938,-0.5933,-0.593,-0.5921,-0.5922,-0.5911,-0.5913,-0.5907,-0.5905,-0.5901,-0.5902,-0.59,-0.5888,-0.5903,-0.593,-0.5931,-0.59,-0.59,-0.5899,0,-0.5979,-0.5976,-0.5979,-0.5976,-0.5965,-0.5966,-0.5962,-0.5955,-0.5953,-0.5949,-0.5947,-0.5943,-0.5941,-0.5938,-0.5928,-0.5921,-0.593,-0.5919,-0.5925,-0.5925,-0.5926,-0.5926,-0.5952,-0.5928,-0.5927,-0.5927,-0.5927,0,-0.6,-0.6004,-0.5989,-0.599,-0.5994,-0.5982,-0.5986,-0.5979,-0.5973,-0.5973,-0.5961,-0.5961,-0.5948,-0.5946,-0.5938,-0.5939,-0.5939,-0.5934,-0.5932,-0.5935,-0.5935,-0.5932,-0.5931,-0.5928,-0.5928,-0.5928,-0.5928,0,-0.6026,-0.6016,-0.6018,-0.6007,-0.6004,-0.6007,-0.5997,-0.5998,-0.599,-0.599,-0.599,-0.5978,-0.5975,-0.5965,-0.596,-0.5954,-0.5958,-0.5954,-0.596,-0.5958,-0.5964,-0.5963,-0.5989,-0.5991,-0.5966,-0.5966,-0.5967,0,-0.604,-0.6042,-0.6031,-0.603,-0.6026,-0.6024,-0.6022,-0.601,-0.6008,-0.6,-0.6002,-0.5998,-0.5994,-0.5991,-0.5982,-0.5978,-0.5973,-0.5982,-0.5972,-0.5974,-0.5971,-0.5971,-0.597,-0.5984,-0.5984,-0.5984,-0.5985,0,-0.6064,-0.6059,-0.6056,-0.6051,-0.6049,-0.6045,-0.604,-0.6039,-0.6026,-0.6024,-0.6021,-0.6018,-0.6013,-0.6009,-0.6003,-0.5998,-0.5989,-0.5988,-0.5989,-0.5991,-0.5994,-0.5991,-0.5964,-0.5987,-0.5987,-0.5987,-0.5986,-0.5986,-0.6083,-0.6084,-0.6076,-0.6073,-0.6068,-0.6064,-0.6063,-0.6056,-0.6053,-0.6047,-0.604,-0.6038,-0.603,-0.6022,-0.6017,-0.6015,-0.601,-0.6011,-0.6012,-0.6012,-0.6013,-0.5995,-0.6014,-0.6014,-0.6014,-0.6014,-0.6014,0,-0.6106,-0.61,-0.6098,-0.609,-0.6088,-0.6079,-0.6073,-0.6071,-0.6069,-0.6063,-0.606,-0.6056,-0.6052,-0.6042,-0.6037,-0.6037,-0.6033,-0.6036,-0.6035,-0.6034,-0.6018,-0.6017,-0.604,-0.604,-0.604,-0.604,-0.604,-0.604,-0.6118,-0.6118,-0.6112,-0.611,-0.6104,-0.6101,-0.6098,-0.6093,-0.6088,-0.6084,-0.6081,-0.6075,-0.6067,-0.6061,-0.6057,-0.6054,-0.6052,-0.6057,-0.6053,-0.6038,-0.6035,-0.6033,-0.6032,-0.6057,-0.6057,-0.6068,-0.6069,-0.6069]},{"header":{"parameterUnit":"m.s-1","parameterCategory":1,"la1":30.2991,"la2":30.254,"lo1":-89.0895,"lo2":-89.0444,"dy":0.0017,"dx":0.0017,"nx":28,"ny":28,"refTime":"2024-02-17T03:00:00:Z","depth":0,"parameterNumber":3,"parameterNumberName":"V-component_of_WINDS"},"data":[0,0,0,0,0,0,0,0,0,0,0,0,0,0,0,0,0,0,0,0,0,0,0,0,0,0,0,0,0,0,0,0,0,0,0,0,0,0,0,0,0,0,0,0,0,0,0,0,0,0,0,0,0,0,0,0,0,0,1.4784,1.4784,0,1.4766,1.4765,1.4765,1.4769,1.4769,1.477,1.477,1.4749,1.4748,1.4747,0,0,0,0,0,0,0,0,0,0,0,0,0,1.4821,1.482,1.4784,1.4784,1.4783,1.4766,1.4765,1.4765,1.4769,1.4769,1.477,1.477,1.4749,1.4748,1.4747,0,0,0,0,0,0,0,0,0,0,0,0,0,1.4804,1.482,1.4784,1.4783,1.4783,1.4766,1.4765,1.4765,1.4769,1.4769,1.477,1.477,1.4749,1.4748,1.4747,1.4728,0,0,1.4743,1.4742,0,0,0,0,0,0,0,0,1.4805,1.4803,1.4783,1.4783,1.4783,1.477,1.4771,1.4753,1.4769,1.4774,1.477,1.477,1.4755,1.4753,1.4749,1.4727,1.4726,1.4743,1.4742,1.4741,1.4741,0,0,0,0,0,0,0,1.4806,1.4803,1.4776,1.4783,1.4783,1.4783,1.4782,1.4767,1.4762,1.4774,1.4774,1.4772,1.4755,1.475,1.4748,1.4726,1.4743,1.4742,1.4741,1.474,1.4691,1.469,0,0,0,0,0,0,1.4808,1.4804,1.4777,1.4776,1.4796,1.4782,1.478,1.4774,1.4762,1.4761,1.4771,1.4772,1.4752,1.475,1.4748,1.4727,1.4741,1.474,1.4739,1.4691,1.4691,1.469,0,0,0,0,0,0,1.4809,1.4805,1.4778,1.479,1.4787,1.4781,1.4774,1.4773,1.4768,1.476,1.4759,1.4767,1.4752,1.475,1.4734,1.4726,1.4739,1.4738,1.4692,1.4691,1.469,1.4684,0,0,0,0,0,0,1.481,1.4806,1.4799,1.479,1.4786,1.4764,1.4773,1.4772,1.4766,1.4767,1.4756,1.4755,1.4753,1.4736,1.4732,1.4724,1.4737,1.4693,1.4692,1.4691,1.4685,1.4683,1.4681,0,0,0,0,0,1.4811,1.4796,1.4798,1.4795,1.4777,1.4764,1.4762,1.476,1.4765,1.4758,1.4754,1.4755,1.4727,1.4734,1.473,1.4722,1.4693,1.4692,1.4691,1.4685,1.4683,1.4681,0,0,0,0,0,0,1.4803,1.4795,1.4797,1.4779,1.4773,1.4765,1.4755,1.4757,1.4748,1.4749,1.4746,1.4744,1.4728,1.4723,1.4731,1.4704,1.4711,1.4709,1.4708,1.4706,1.4704,1.4706,1.4736,0,0,0,0,0,1.4799,1.4789,1.4783,1.4768,1.4765,1.4761,1.4755,1.4754,1.4747,1.4743,1.4738,1.473,1.4719,1.4712,1.4702,1.4684,1.4683,1.4677,1.4675,1.4674,1.4672,1.4664,1.4661,1.4686,1.4686,1.4686,0,0,1.4791,1.4786,1.4779,1.4767,1.4761,1.4751,1.4758,1.4747,1.4739,1.4741,1.4727,1.4722,1.4713,1.4697,1.4689,1.4692,1.4665,1.4672,1.4671,1.467,1.4662,1.466,1.4658,1.4685,1.4686,1.4686,0,0,1.4771,1.4766,1.4754,1.4749,1.4741,1.4739,1.4736,1.4729,1.4726,1.4712,1.4714,1.4705,1.4686,1.4681,1.4675,1.4656,1.4657,1.4652,1.4644,1.4636,1.4634,1.4632,1.4626,1.4624,1.4651,1.4651,1.4651,0,1.4762,1.4748,1.4747,1.4737,1.4731,1.4734,1.4722,1.4717,1.4706,1.4702,1.4706,1.4685,1.4678,1.4662,1.4657,1.4652,1.465,1.4654,1.4634,1.4632,1.4631,1.4625,1.4623,1.465,1.465,1.465,1.4651,0,1.4737,1.4727,1.4718,1.4709,1.4703,1.4691,1.469,1.4683,1.4684,1.4681,1.4667,1.4661,1.465,1.4646,1.4645,1.4629,1.4632,1.4635,1.4641,1.4628,1.4623,1.4621,1.465,1.465,1.465,1.465,0,0,1.4711,1.4704,1.47,1.4697,1.469,1.4682,1.4671,1.4662,1.4657,1.4649,1.4641,1.4626,1.463,1.4624,1.4623,1.4616,1.4603,1.462,1.462,1.4618,1.4586,1.4584,1.4582,1.4604,1.4604,1.4603,1.4587,0,1.4691,1.4673,1.4674,1.4657,1.4648,1.4652,1.4642,1.4637,1.4635,1.4627,1.4624,1.4615,1.4619,1.4616,1.4609,1.4606,1.4597,1.4607,1.4596,1.4596,1.4599,1.4579,1.4576,1.4562,1.4585,1.4585,1.4585,0,1.4666,1.466,1.4642,1.4638,1.4634,1.4626,1.4619,1.4611,1.4606,1.4605,1.4599,1.46,1.4589,1.4596,1.4582,1.4589,1.4585,1.4583,1.4582,1.4581,1.4589,1.4578,1.4557,1.4555,1.4581,1.4581,1.4582,0,1.465,1.4637,1.4625,1.4622,1.4617,1.4611,1.4608,1.4603,1.4598,1.4592,1.4589,1.4581,1.4576,1.457,1.4569,1.4574,1.4555,1.4562,1.4554,1.4554,1.455,1.455,1.4528,1.4546,1.4546,1.4547,1.4547,0,1.4628,1.4618,1.4618,1.4611,1.46,1.4601,1.4589,1.4587,1.4583,1.4576,1.4578,1.4571,1.4569,1.4562,1.4561,1.455,1.4548,1.4547,1.4547,1.4547,1.4548,1.4544,1.4546,1.4546,1.4546,1.4546,1.4546,0,1.4608,1.4608,1.4596,1.4593,1.4592,1.4583,1.458,1.4574,1.4573,1.4563,1.4561,1.4559,1.4551,1.4549,1.4539,1.4539,1.4526,1.4527,1.4528,1.4529,1.4522,1.4523,1.4497,1.4494,1.4514,1.4514,1.4513,0,1.4595,1.4587,1.4584,1.458,1.4577,1.457,1.4566,1.4566,1.4562,1.4556,1.455,1.4542,1.4536,1.4523,1.4521,1.4513,1.4514,1.4506,1.4513,1.4514,1.4515,1.4516,1.4516,1.4505,1.4504,1.4504,1.4504,0,1.4572,1.4572,1.4566,1.4561,1.4556,1.4552,1.4547,1.4543,1.4544,1.4538,1.4531,1.4526,1.4517,1.451,1.4503,1.45,1.4502,1.4502,1.45,1.45,1.4502,1.4502,1.4525,1.4502,1.4503,1.4503,1.4503,1.4503,1.4555,1.4549,1.4546,1.454,1.4537,1.4534,1.4528,1.4527,1.4521,1.4514,1.4515,1.4507,1.4503,1.4494,1.4491,1.4485,1.4487,1.4484,1.4483,1.4483,1.4483,1.4503,1.4483,1.4483,1.4483,1.4483,1.4483,0,1.4533,1.4531,1.4526,1.4521,1.4516,1.452,1.4515,1.4511,1.4504,1.4501,1.4496,1.4488,1.4481,1.4479,1.4472,1.4468,1.4469,1.4466,1.4467,1.4466,1.448,1.4483,1.4466,1.4466,1.4466,1.4466,1.4466,1.4466,1.452,1.4511,1.4512,1.4502,1.45,1.4493,1.4491,1.4488,1.4485,1.4477,1.4472,1.4471,1.4468,1.4462,1.4456,1.4455,1.4453,1.445,1.445,1.4463,1.4465,1.4467,1.4469,1.445,1.445,1.4437,1.4437,1.4437]}]]